Find OneWeb SL0253

NORAD ID: 48971 Int'l Des: 2021-060 Owner: ONEWEBN Country: UK Constellation: oneweb operational
LEOCIRCULARPOLARONEWEB_TYPE

Live Position

Loading 3D Globe...

About OneWeb SL0253

Description loading...

Upcoming Passes

Passes for default location (London). Set your location on the main map for personalized predictions.

Altitude History

Loading altitude history...

Two-Line Element Set

1 48971U 21060E 26132.81008400 .00000079 00000-0 17281-3 0 9991
2 48971 87.9101 235.7998 0001879 100.3579 259.7763 13.16595670234933
Epoch: May 12, 2026 • Age: 12 hours

Current Status

Altitude 1201.4 km
Velocity 7.26 km/s
Sub-Earth Point 34.95°N, 76.39°E
Launch Date Jul 1, 2021
Age 4.8 years
Type internet

Technical Details

Classification Payload
Mass 148.00 kg
Dry Mass 140.00 kg
Total Mass 148.00 kg
Length 1.30 m
Diameter 1.00 m
Span 5.00 m
Shape Trapezoid+2 pan
Manufacturer ONEWUS
Bus Type ARROW
Phase Status In Orbit
Owner/State ONEWEBN/UK

Most Searched